CZ-3B R/B (43921 NORAD) Tracking and Keplerian Element Data

This shows tracking and keplerian element data for the satellite.

Feedback or suggestion? Click here.




ElementValue
Catalog43921
NameCZ-3B R/B
Epoch Orbit71
Epoch Day39.58974311
Epoch Year2019
RAAN353.4473
Inclination27.0591
Eccentricity0.7219023
Argument of Perigee197.8355
Mean Anonmoly109.5512
Mean Motion2.42127442
Decay Rate0.00121913
L11 43921U 19001B 19039.58974311 .00121913 13974-5 45040-3 0 9992
L22 43921 27.0591 353.4473 7219023 197.8355 109.5512 2.42127442 715

Live tracking and technical data element details for CZ-3B R/B (NORAD 43921). CZ-3B R/B can be tracked NOW for your location showing map with azimuth and elevation plus other details from your city location.

Track the satellite on the map from your city or location and see movement details for azimuth, elevation, latitude, longitude, range, height, and movement on the map or in text.







IsCatalogInMostPopularTable: catalog: 43921, numindb: 80
Update: records affected: 1



GetName: 43921 CZ-3B R/B

Hit Count: updated at: Thu, 23 May 2019 15:26:36 GMT